Tracking 28902 objects as of 20-May-2024
HD Live streaming from Space Station
objects crossing your sky now

KSM1-C

Track KSM1-C now!
10-day predictions
KSM1-C is classified as:


NORAD ID: 46906
Int'l Code: 2020-081B
Perigee: 544.6 km
Apogee: 550.8 km
Inclination: 36.9 °
Period: 95.5 minutes
Semi major axis: 6918 km
RCS: Unknown
Launch date: November 7, 2020
Source: Luxembourg (LUXE)
Launch site: SRIHARIKOTA (SRI)

Uplink (MHz):
Downlink (MHz): 401.120
Beacon (MHz):
Mode: 9600bps FSK
Call sign:
Status: Active

Your satellite tracking list
Your tracking list is empty




NASA's NSSDC Master Catalog

Two Line Element Set (TLE):
1 46906U 20081B   24140.62712450  .00012768  00000-0  80424-3 0  9999
2 46906  36.8953   0.4650 0004432   3.0549 357.0221 15.08577273193839
Source of the keplerian elements: AFSPC